Preview of NWS' New Version of Forecast
This preview is not operational and should not be used for support decisions.

Regional Weather Roundup (RWR)

Issued by National Weather Service (NWS)

                            
000
ASUS43 KLSX 202357
RWRMO 

WEATHER SUMMARY FOR MISSOURI
NATIONAL WEATHER SERVICE SPRINGFIELD MO
700 PM CDT WED MAR 20 2019

NOTE: "FAIR" INDICATES FEW OR NO CLOUDS BELOW 12,000 FEET WITH NO
       SIGNIFICANT WEATHER AND/OR OBSTRUCTIONS TO VISIBILITY.
       CURRENT SKY AND/OR WEATHER CONDITIONS ARE NOT AVAILABLE FOR
       CHILLICOTHE AND FARMINGTON.

MOZ001>031-035>038-043-044-053-054-210100-
...NORTHERN AND WESTERN MISSOURI...
  
CITY           SKY/WX    TMP DP  RH WIND       PRES   REMARKS
KANSAS CTY INT CLEAR     56  34  43 W10       30.03F                  
6HR MIN TEMP:  49; 6HR MAX TEMP:  58;                                

ST JOSEPH      CLEAR     57  32  38 NW9       30.02S                  
6HR MIN TEMP:  44; 6HR MAX TEMP:  59;                                

CHILLICOTHE      N/A     54  35  48 W7        30.01F                  
6HR MIN TEMP:  48; 6HR MAX TEMP:  56;                                

     
$$
MOZ066>068-077>081-088>096-101>105-210100-
...SOUTHWEST MISSOURI...
  
CITY           SKY/WX    TMP DP  RH WIND       PRES   REMARKS
SPRINGFIELD    PTCLDY    51  37  58 W12       30.09S                  
6HR MIN TEMP:  45; 6HR MAX TEMP:  52; 6HR PCP: TRACE;                

JOPLIN         CLEAR     55  35  47 W12       30.10S                  
6HR MIN TEMP:  49; 6HR MAX TEMP:  57;                                

BRANSON        PTCLDY    48  36  61 W7        30.12S                  
               
$$
MOZ032>034-039>042-045>050-055>058-069>072-210100-
...CENTRAL MISSOURI...  
  
CITY           SKY/WX    TMP DP  RH WIND       PRES   REMARKS
COLUMBIA       NOT AVBL                                               
JEFFERSON CITY MOCLDY    55  36  48 W10       30.02F                  
6HR MIN TEMP:  49; 6HR MAX TEMP:  56;                                

ROLLA          MOCLDY    49  36  61 W10       30.04S                  
6HR MIN TEMP:  48; 6HR MAX TEMP:  51;                                

SEDALIA        CLEAR     54  34  46 NW13      30.03S                  
6HR MIN TEMP:  50; 6HR MAX TEMP:  57;                                

WARRENSBURG    CLEAR     55  32  41 W10       30.04S                  
               
$$
MOZ051-052-059>065-210100-
...EAST CENTRAL MISSOURI...
  
CITY           SKY/WX    TMP DP  RH WIND       PRES   REMARKS
ST LOUIS INTL  PTCLDY    50  37  61 W12       30.01S                  
6HR MIN TEMP:  50; 6HR MAX TEMP:  55;                                

                   
$$
MOZ072>076-082>087-097>100-106>115-210100-
...SOUTH CENTRAL AND SOUTHEAST MISSOURI...
  
CITY           SKY/WX    TMP DP  RH WIND       PRES   REMARKS
CAPE GIRARDEAU LGT RAIN  48  45  89 SW9       30.06S                  
6HR MIN TEMP:  48; 6HR MAX TEMP:  49; 6HR PCP:  0.07;                

POPLAR BLUFF   CLOUDY    49  47  93 SW6       30.08S                  
6HR MIN TEMP:  49; 6HR MAX TEMP:  50; 6HR PCP:  0.08;                

WEST PLAINS    CLOUDY    47  41  80 W6        30.09R                  
6HR MIN TEMP:  45; 6HR MAX TEMP:  54; 6HR PCP:  0.01;                

                                       
$$